| time (UTC) | temp F | wind direction | speed MPH | gust MPH | rain 1hr in | rain 24hr in | rain mn in | humidity % | barometer mb |
| 20260902190802 | 60 | 196 | 3.0 | 6.0 | 0.00 | 0.44 | 0.00 | 81 | 1017.7 |
| 20260902185702 | 60 | 253 | 1.0 | 6.0 | 0.00 | 0.44 | 0.00 | 83 | 1017.7 |
| 20260902184601 | 59 | 197 | 3.0 | 6.0 | 0.00 | 0.44 | 0.00 | 83 | 1017.7 |
| 20260902183311 | 60 | 219 | 1.0 | 5.0 | 0.00 | 0.44 | 0.00 | 84 | 1017.7 |
| 20260902182019 | 59 | 295 | 0.0 | 3.0 | 0.00 | 0.44 | 0.00 | 85 | 1017.6 |
| 20260902180919 | 59 | 272 | 2.0 | 3.0 | 0.00 | 0.44 | 0.00 | 85 | 1017.5 |
| 20260902175819 | 59 | 206 | 2.0 | 3.0 | 0.00 | 0.44 | 0.00 | 85 | 1017.3 |
| 20260902174719 | 58 | 151 | 1.0 | 3.0 | 0.00 | 0.44 | 0.00 | 85 | 1017.3 |
| 20260902173619 | 58 | 231 | 2.0 | 4.0 | 0.00 | 0.44 | 0.00 | 86 | 1017.1 |
| 20260902172519 | 58 | 264 | 2.0 | 3.0 | 0.00 | 0.44 | 0.00 | 85 | 1017.1 |
| 20260902171419 | 59 | 225 | 3.0 | 4.0 | 0.00 | 0.44 | 0.00 | 85 | 1016.9 |
| 20260902170319 | 59 | 180 | 1.0 | 2.0 | 0.00 | 0.44 | 0.00 | 86 | 1016.8 |
| 20260902165219 | 59 | 167 | 1.0 | 3.0 | 0.00 | 0.44 | 0.00 | 85 | 1016.7 |
| 20260902164119 | 58 | 252 | 1.0 | 3.0 | 0.00 | 0.44 | 0.00 | 85 | 1016.5 |
| 20260902162635 | 58 | 188 | 0.0 | 3.0 | 0.00 | 0.44 | 0.00 | 85 | 1016.3 |
| 20260902161535 | 58 | 281 | 2.0 | 3.0 | 0.00 | 0.44 | 0.00 | 85 | 1016.3 |
| 20260902160435 | 58 | 214 | 2.0 | 3.0 | 0.00 | 0.44 | 0.00 | 85 | 1016.3 |
| 20260902155335 | 58 | 219 | 2.0 | 3.0 | 0.00 | 0.44 | 0.00 | 85 | 1016.2 |
| 20260902154235 | 58 | 202 | 1.0 | 3.0 | 0.00 | 0.44 | 0.00 | 85 | 1016.3 |
| 20260902153136 | 58 | 65 | 1.0 | 2.0 | 0.00 | 0.44 | 0.00 | 85 | 1016.3 |
| 20260902152035 | 58 | 180 | 0.0 | 2.0 | 0.00 | 0.44 | 0.00 | 85 | 1016.2 |
| 20260902150744 | 58 | 217 | 1.0 | 2.0 | 0.00 | 0.44 | 0.00 | 85 | 1016.1 |
| 20260902145644 | 58 | 217 | 1.0 | 3.0 | 0.01 | 0.44 | 0.00 | 85 | 1016.2 |
| 20260902144544 | 58 | 225 | 1.0 | 4.0 | 0.01 | 0.44 | 0.00 | 85 | 1016.2 |
| 20260902143444 | 58 | 219 | 2.0 | 4.0 | 0.04 | 0.44 | 0.00 | 85 | 1016.0 |
| 20260902142344 | 58 | 158 | 1.0 | 3.0 | 0.07 | 0.44 | 0.00 | 85 | 1015.8 |
| 20260902141244 | 58 | 180 | 0.0 | 2.0 | 0.12 | 0.44 | 0.00 | 85 | 1015.5 |
| 20260902140144 | 58 | 110 | 0.0 | 2.0 | 0.14 | 0.44 | 0.00 | 85 | 1015.4 |
| 20260902135044 | 58 | 112 | 1.0 | 3.0 | 0.15 | 0.43 | 0.43 | 85 | 1015.4 |
| 20260902133752 | 57 | 135 | 0.0 | 2.0 | 0.17 | 0.40 | 0.40 | 85 | 1015.4 |
| 20260902132652 | 57 | 87 | 1.0 | 2.0 | 0.17 | 0.38 | 0.38 | 85 | 1015.3 |
| 20260902131551 | 57 | 90 | 0.0 | 1.0 | 0.17 | 0.35 | 0.35 | 85 | 1015.2 |
| 20260902130451 | 57 | 232 | 0.0 | 2.0 | 0.16 | 0.31 | 0.31 | 85 | 1015.2 |
| 20260902125200 | 57 | 225 | 1.0 | 3.0 | 0.18 | 0.28 | 0.28 | 85 | 1015.0 |
| 20260902123909 | 57 | 93 | 0.0 | 3.0 | 0.18 | 0.23 | 0.23 | 85 | 1015.0 |
| 20260902122809 | 57 | 109 | 1.0 | 2.0 | 0.17 | 0.21 | 0.21 | 85 | 1015.0 |
| 20260902121709 | 57 | 242 | 0.0 | 2.0 | 0.17 | 0.19 | 0.19 | 85 | 1015.1 |
| 20260902120609 | 57 | 257 | 0.0 | 3.0 | 0.15 | 0.17 | 0.17 | 85 | 1015.1 |
| 20260902115512 | 57 | 298 | 1.0 | 2.0 | 0.09 | 0.12 | 0.12 | 85 | 1015.1 |
| 20260902114409 | 57 | 214 | 1.0 | 2.0 | 0.05 | 0.06 | 0.06 | 85 | 1015.1 |
| 20260902113118 | 57 | 135 | 0.0 | 2.0 | 0.04 | 0.04 | 0.04 | 85 | 1015.1 |
| 20260902112018 | 57 | 132 | 1.0 | 2.0 | 0.02 | 0.02 | 0.02 | 85 | 1015.2 |
| 20260902110918 | 57 | 110 | 1.0 | 3.0 | 0.02 | 0.02 | 0.02 | 85 | 1015.1 |
| 20260902105818 | 57 | 135 | 1.0 | 2.0 | 0.02 | 0.02 | 0.02 | 85 | 1015.0 |
| 20260902104718 | 57 | 112 | 2.0 | 3.0 | 0.02 | 0.02 | 0.02 | 85 | 1015.0 |
| 20260902103618 | 57 | 135 | 1.0 | 2.0 | 0.01 | 0.01 | 0.01 | 85 | 1015.2 |
| 20260902102327 | 57 | 135 | 0.0 | 2.0 | 0.00 | 0.00 | 0.00 | 85 | 1015.3 |
| 20260902101227 | 57 | 164 | 1.0 | 2.0 | 0.00 | 0.00 | 0.00 | 85 | 1015.4 |
| 20260902100128 | 57 | 135 | 0.0 | 3.0 | 0.00 | 0.00 | 0.00 | 85 | 1015.5 |
| 20260902095027 | 57 | 92 | 2.0 | 3.0 | 0.00 | 0.00 | 0.00 | 85 | 1015.5 |
| 20260902093927 | 57 | 90 | 1.0 | 2.0 | 0.00 | 0.00 | 0.00 | 85 | 1015.5 |
| 20260902092827 | 57 | 138 | 0.0 | 2.0 | 0.00 | 0.00 | 0.00 | 85 | 1015.6 |
| 20260902091727 | 57 | 129 | 0.0 | 2.0 | 0.00 | 0.00 | 0.00 | 84 | 1015.6 |
| 20260902090627 | 57 | 138 | 0.0 | 3.0 | 0.00 | 0.00 | 0.00 | 84 | 1015.7 |
| 20260902085144 | 57 | 193 | 0.0 | 2.0 | 0.00 | 0.00 | 0.00 | 84 | 1015.8 |
| 20260902084044 | 57 | 122 | 1.0 | 2.0 | 0.00 | 0.00 | 0.00 | 84 | 1015.9 |
| 20260902082944 | 57 | 70 | 1.0 | 3.0 | 0.00 | 0.00 | 0.00 | 84 | 1016.0 |
| 20260902081844 | 57 | 138 | 1.0 | 3.0 | 0.00 | 0.00 | 0.00 | 84 | 1015.9 |
| 20260902080744 | 57 | 200 | 0.0 | 2.0 | 0.00 | 0.00 | 0.00 | 84 | 1016.0 |
| 20260902075644 | 57 | 177 | 1.0 | 2.0 | 0.00 | 0.00 | 0.00 | 84 | 1016.0 |
| 20260902074353 | 57 | 135 | 0.0 | 2.0 | 0.00 | 0.00 | 0.00 | 84 | 1016.0 |
| 20260902073253 | 57 | 104 | 0.0 | 2.0 | 0.00 | 0.00 | 0.00 | 84 | 1015.9 |
| 20260902072153 | 57 | 141 | 1.0 | 2.0 | 0.00 | 0.00 | 0.00 | 84 | 1015.9 |
| 20260902071053 | 57 | 34 | 0.0 | 4.0 | 0.00 | 0.00 | 0.00 | 84 | 1015.9 |
| 20260902065953 | 57 | 253 | 1.0 | 2.0 | 0.00 | 0.00 | 0.00 | 84 | 1015.9 |
| 20260902064701 | 57 | 220 | 0.0 | 2.0 | 0.00 | 0.00 | 0.00 | 84 | 1015.9 |
| 20260902063601 | 57 | 200 | 1.0 | 2.0 | 0.00 | 0.00 | 0.00 | 84 | 1015.8 |
| 20260902062501 | 57 | 161 | 1.0 | 2.0 | 0.00 | 0.00 | 0.00 | 84 | 1015.7 |
| 20260902061402 | 57 | 200 | 1.0 | 2.0 | 0.00 | 0.00 | 0.00 | 84 | 1015.6 |
| 20260902060301 | 57 | 200 | 1.0 | 2.0 | 0.00 | 0.00 | 0.00 | 84 | 1015.8 |
| 20260902055201 | 57 | 180 | 0.0 | 2.0 | 0.00 | 0.00 | 0.00 | 84 | 1016.0 |
| 20260902054102 | 57 | 96 | 1.0 | 2.0 | 0.00 | 0.00 | 0.00 | 83 | 1015.9 |
| 20260902053001 | 57 | 248 | 1.0 | 2.0 | 0.00 | 0.00 | 0.00 | 83 | 1015.9 |
| 20260902051711 | 57 | 180 | 1.0 | 2.0 | 0.00 | 0.00 | 0.00 | 84 | 1015.8 |
| 20260902050419 | 57 | 270 | 1.0 | 2.0 | 0.00 | 0.00 | 0.00 | 83 | 1015.9 |
| 20260902045319 | 57 | 180 | 1.0 | 4.0 | 0.00 | 0.00 | 0.00 | 83 | 1015.7 |
| 20260902044219 | 57 | 180 | 1.0 | 2.0 | 0.00 | 0.00 | 0.00 | 83 | 1015.9 |
| 20260902043119 | 58 | 225 | 1.0 | 3.0 | 0.00 | 0.00 | 0.00 | 82 | 1015.9 |
| 20260902042020 | 58 | 244 | 2.0 | 3.0 | 0.00 | 0.00 | 0.00 | 82 | 1015.8 |
| 20260902040727 | 58 | 225 | 1.0 | 2.0 | 0.00 | 0.00 | 0.00 | 82 | 1015.7 |
| 20260902035627 | 58 | 219 | 1.0 | 2.0 | 0.00 | 0.00 | 0.00 | 82 | 1015.6 |
| 20260902034528 | 58 | 270 | 1.0 | 2.0 | 0.00 | 0.00 | 0.00 | 82 | 1015.5 |
| 20260902033428 | 58 | 225 | 1.0 | 4.0 | 0.00 | 0.00 | 0.00 | 82 | 1015.5 |
| 20260902032328 | 58 | 225 | 1.0 | 3.0 | 0.00 | 0.00 | 0.00 | 82 | 1015.5 |
| 20260902031228 | 58 | 241 | 1.0 | 3.0 | 0.00 | 0.00 | 0.00 | 81 | 1015.6 |
| 20260902030127 | 58 | 202 | 1.0 | 2.0 | 0.00 | 0.00 | 0.00 | 81 | 1015.5 |
| 20260902025027 | 58 | 236 | 1.0 | 3.0 | 0.00 | 0.00 | 0.00 | 81 | 1015.4 |
| 20260902023928 | 59 | 0 | 0.0 | 6.0 | 0.00 | 0.00 | 0.00 | 80 | 1015.3 |
| 20260902022827 | 59 | 217 | 1.0 | 6.0 | 0.00 | 0.00 | 0.00 | 80 | 1015.5 |
| 20260902021535 | 59 | 270 | 2.0 | 4.0 | 0.00 | 0.00 | 0.00 | 80 | 1015.5 |
| 20260902020244 | 59 | 260 | 2.0 | 6.0 | 0.00 | 0.00 | 0.00 | 79 | 1015.4 |
| 20260902015144 | 59 | 248 | 3.0 | 4.0 | 0.00 | 0.00 | 0.00 | 80 | 1015.4 |
| 20260902014044 | 60 | 244 | 2.0 | 4.0 | 0.00 | 0.00 | 0.00 | 79 | 1015.5 |
| 20260902012944 | 60 | 222 | 3.0 | 4.0 | 0.00 | 0.00 | 0.00 | 80 | 1015.5 |
| 20260902011844 | 60 | 222 | 4.0 | 5.0 | 0.00 | 0.00 | 0.00 | 80 | 1015.4 |
| 20260902010552 | 61 | 225 | 3.0 | 5.0 | 0.00 | 0.00 | 0.00 | 79 | 1015.4 |
| 20260902005452 | 61 | 225 | 3.0 | 10.0 | 0.00 | 0.00 | 0.00 | 78 | 1015.3 |
| 20260902004352 | 61 | 205 | 3.0 | 4.0 | 0.00 | 0.00 | 0.00 | 78 | 1015.3 |
| 20260902003253 | 61 | 221 | 3.0 | 11.0 | 0.00 | 0.00 | 0.00 | 77 | 1015.3 |
| 20260902002153 | 62 | 241 | 3.0 | 8.0 | 0.00 | 0.00 | 0.00 | 75 | 1015.3 |
| 20260902000901 | 63 | 253 | 5.0 | 7.0 | 0.00 | 0.00 | 0.00 | 74 | 1015.3 |
| 20260901235801 | 63 | 257 | 3.0 | 4.0 | 0.00 | 0.00 | 0.00 | 73 | 1015.3 |
| 20260901234701 | 63 | 190 | 3.0 | 4.0 | 0.00 | 0.00 | 0.00 | 73 | 1015.3 |
| 20260901233602 | 63 | 208 | 3.0 | 6.0 | 0.00 | 0.00 | 0.00 | 73 | 1015.3 |
| 20260901232501 | 63 | 190 | 4.0 | 6.0 | 0.00 | 0.00 | 0.00 | 72 | 1015.4 |
| 20260901231210 | 63 | 215 | 3.0 | 7.0 | 0.00 | 0.00 | 0.00 | 73 | 1015.4 |
| 20260901230110 | 64 | 212 | 4.0 | 6.0 | 0.00 | 0.00 | 0.00 | 71 | 1015.4 |
| 20260901225010 | 64 | 186 | 3.0 | 4.0 | 0.00 | 0.00 | 0.00 | 71 | 1015.5 |
| 20260901223911 | 63 | 235 | 3.0 | 9.0 | 0.00 | 0.00 | 0.00 | 73 | 1015.5 |
| 20260901222810 | 63 | 264 | 2.0 | 6.0 | 0.00 | 0.00 | 0.00 | 74 | 1015.6 |
| 20260901221710 | 64 | 215 | 3.0 | 5.0 | 0.00 | 0.00 | 0.00 | 73 | 1015.7 |
| 20260901220610 | 64 | 199 | 3.0 | 6.0 | 0.00 | 0.00 | 0.00 | 72 | 1015.7 |
| 20260901215318 | 0 | 205 | 2.0 | 4.0 | 0.00 | 0.00 | 0.00 | 1015.7 | |
| 20260901214219 | 65 | 222 | 4.0 | 8.0 | 0.00 | 0.00 | 0.00 | 71 | 1015.8 |
| 20260901213119 | 64 | 231 | 3.0 | 10.0 | 0.00 | 0.00 | 0.00 | 74 | 1015.7 |
| 20260901212019 | 64 | 245 | 4.0 | 8.0 | 0.00 | 0.00 | 0.00 | 71 | 1015.7 |
| 20260901210919 | 67 | 275 | 3.0 | 10.0 | 0.00 | 0.00 | 0.00 | 67 | 1015.6 |
| 20260901205819 | 67 | 218 | 4.0 | 11.0 | 0.00 | 0.00 | 0.00 | 67 | 1015.5 |
| 20260901204528 | 63 | 220 | 3.0 | 6.0 | 0.00 | 0.00 | 0.00 | 71 | 1015.5 |
| 20260901203427 | 62 | 183 | 2.0 | 9.0 | 0.00 | 0.00 | 0.00 | 72 | 1015.6 |
| 20260901202327 | 61 | 215 | 3.0 | 6.0 | 0.00 | 0.00 | 0.00 | 74 | 1015.7 |
| 20260901201036 | 62 | 225 | 3.0 | 4.0 | 0.00 | 0.00 | 0.00 | 75 | 1015.9 |
| 20260901195936 | 62 | 221 | 3.0 | 6.0 | 0.00 | 0.00 | 0.00 | 75 | 1016.0 |
| 20260901194836 | 61 | 206 | 3.0 | 4.0 | 0.00 | 0.00 | 0.00 | 77 | 1016.0 |
| 20260901193736 | 61 | 200 | 2.0 | 5.0 | 0.00 | 0.00 | 0.00 | 77 | 1016.0 |
| 20260901192636 | 62 | 211 | 3.0 | 5.0 | 0.00 | 0.00 | 0.00 | 75 | 1015.9 |